Location: St. Louis
(38.6270°N, 90.1994°W)
Time: 11:40:49
(UTC-06:00)

S-56A Canister/Altair - Pass Details

Date: 08 December 2021
Orbit: 634 x 2499 km, 38.9° (Epoch: 26 January)

Event Time Altitude Azimuth Distance (km) Brightness Sun altitude
Rises 03:00:45 0° 283° (WNW) 4,457 - -47.1°
Reaches altitude 10° 03:04:15 10° 281° (W) 3,179 - -46.4°
Maximum altitude 03:11:29 61° 203° (SSW) 1,022 - -45.0°
Drops below altitude 10° 03:16:32 10° 124° (ESE) 2,240 - -44.1°
Exits shadow 03:17:24 - 122° (ESE) 2,565 10.7 -43.9°
Sets 03:18:39 0° 120° (ESE) 3,051 11.2 -43.6°
